FW6211 Weather Reports


time (UTC)temp
C
wind
direction
speed
KPH
gust
KPH
rain 1hr
cm
rain 24hr
cm
rain mn
cm
humidity
%
barometer
mb
20260906231022 17 113 3.2 8.0 0.00 0.03 0.03 83 1021.0
20260906230018 17 113 3.2 8.0 0.00 0.03 0.03 83 1021.2
20260906225031 17 0.0 0.0 0.00 0.03 0.03 86 1021.3
20260906224026 16 0.0 0.0 0.00 0.03 0.03 89 1021.3
20260906223021 16 0.0 0.0 0.00 0.03 0.03 94 1021.5
20260906222033 15 0.0 0.0 0.00 0.03 0.03 95 1021.3
20260906221028 15 0.0 0.0 0.00 0.03 0.03 97 1021.3
20260906220029 15 0.0 0.0 0.00 0.03 0.03 98 1021.5
20260906215024 15 0.0 0.0 0.03 0.03 0.03 99 1021.5
20260906214019 15 0.0 0.0 0.03 0.03 0.03 99 1021.5
20260906213052 15 0.0 0.0 0.03 0.03 0.03 99 1021.5
20260906212027 15 0.0 0.0 0.03 0.03 0.03 99 1021.7
20260906211022 15 0.0 0.0 0.03 0.03 0.03 99 1021.8
20260906210016 14 113 3.2 4.8 0.03 0.03 0.03 99 1021.8
20260906205029 15 113 4.8 8.0 0.00 0.00 0.00 99 1021.9
20260906204044 15 113 3.2 6.4 0.00 0.00 0.00 96 1021.9
20260906203019 15 0.0 0.0 0.00 0.00 0.00 94 1022.0
20260906202032 15 113 0.0 3.2 0.00 0.00 0.00 92 1021.9
20260906201027 16 113 3.2 4.8 0.00 0.00 0.00 90 1022.0
20260906200028 16 113 1.6 3.2 0.00 0.00 0.00 89 1022.1
20260906195042 16 113 1.6 6.4 0.00 0.00 0.00 88 1022.1
20260906194017 16 113 3.2 6.4 0.00 0.00 0.00 87 1022.2
20260906193030 16 0.0 0.0 0.00 0.00 0.00 86 1022.2
20260906192026 16 113 1.6 4.8 0.00 0.00 0.00 86 1022.3
20260906191021 16 1.6 4.8 0.00 0.00 0.00 86 1022.4
20260906190016 16 113 1.6 4.8 0.00 0.00 0.00 86 1022.4
20260906185029 16 0.0 0.0 0.00 0.00 0.00 87 1022.5
20260906184023 16 113 3.2 6.4 0.00 0.00 0.00 87 1022.6
20260906183019 16 113 4.8 6.4 0.00 0.00 0.00 86 1022.6
20260906182108 16 113 4.8 8.0 0.00 0.00 0.00 85 1022.6
20260906181022 16 113 3.2 6.4 0.00 0.00 0.00 85 1022.9
20260906180017 16 113 4.8 8.0 0.00 0.00 0.00 85 1022.9
20260906175024 16 113 4.8 8.0 0.00 0.00 0.00 85 1022.9
20260906174019 16 113 3.2 8.0 0.00 0.00 0.00 85 1022.8
20260906173020 16 113 4.8 8.0 0.00 0.00 0.00 85 1022.7
20260906172016 16 58 6.4 9.7 0.00 0.00 0.00 87 1022.6
20260906171029 16 45 1.6 9.7 0.00 0.00 0.00 87 1022.7
20260906170025 15 0.0 0.0 0.00 0.00 0.00 88 1022.6
20260906165018 16 0.0 0.0 0.00 0.00 0.00 88 1022.6
20260906164032 15 0.0 0.0 0.00 0.00 0.00 91 1022.7
20260906163027 15 0.0 0.0 0.00 0.00 0.00 91 1023.1
20260906162022 15 0.0 0.0 0.00 0.00 0.00 92 1022.9
20260906161023 14 0.0 0.0 0.00 0.00 0.00 93 1023.1
20260906160017 14 0.0 0.0 0.00 0.00 0.00 93 1023.1
20260906155025 15 0.0 0.0 0.00 0.00 0.00 95 1023.0
20260906154020 14 0.0 0.0 0.00 0.00 0.00 97 1023.0
20260906153021 14 0.0 0.0 0.00 0.00 0.00 97 1023.3
20260906152034 14 0.0 0.0 0.00 0.00 0.00 97 1023.4
20260906151029 13 0.0 0.0 0.00 0.00 0.00 98 1023.5
20260906150024 13 0.0 0.0 0.00 0.00 0.00 99 1023.6
20260906145020 13 0.0 0.0 0.00 0.00 0.00 99 1023.6
20260906144112 13 0.0 0.0 0.00 0.00 0.00 99 1023.6
20260906143026 13 0.0 0.0 0.00 0.00 0.00 99 1023.6
20260906142022 12 0.0 0.0 0.00 0.00 0.00 99 1023.7
20260906141023 12 0.0 0.0 0.00 0.00 0.00 99 1023.8
20260906140017 12 0.0 0.0 0.00 0.00 0.00 99 1023.7
20260906135044 12 0.0 0.0 0.00 0.00 0.00 99 1023.7
20260906134039 12 0.0 0.0 0.00 0.00 0.00 99 1023.7
20260906133020 12 0.0 0.0 0.00 0.00 0.00 99 1023.9
20260906132033 12 0.0 0.0 0.00 0.00 0.00 99 1024.1
20260906131028 12 0.0 0.0 0.00 0.00 0.00 99 1024.2
20260906130023 12 0.0 0.0 0.00 0.00 0.00 99 1024.1
20260906125038 12 0.0 0.0 0.00 0.00 0.00 99 1024.1
20260906124031 12 0.0 0.0 0.00 0.00 0.00 99 1024.0
20260906123025 12 0.0 0.0 0.00 0.00 0.00 99 1023.7
20260906122020 12 0.0 0.0 0.00 0.00 0.00 99 1024.0
20260906121015 12 0.0 0.0 0.00 0.00 0.00 99 1023.8
20260906120037 12 0.0 0.0 0.00 0.00 0.00 99 1023.7
20260906115023 12 0.0 0.0 0.00 0.00 0.00 99 1023.7
20260906114018 12 0.0 0.0 0.00 0.00 0.00 99 1023.8
20260906113019 12 0.0 0.0 0.00 0.00 0.00 99 1023.9
20260906112033 12 0.0 0.0 0.00 0.00 0.00 99 1024.2
20260906111028 12 0.0 0.0 0.00 0.00 0.00 99 1024.3
20260906110042 12 0.0 0.0 0.00 0.00 0.00 99 1024.5
20260906105017 12 0.0 0.0 0.00 0.00 0.00 99 1024.6
20260906104030 12 0.0 0.0 0.00 0.00 0.00 99 1024.7
20260906103025 12 0.0 0.0 0.00 0.00 0.00 99 1024.7
20260906102020 12 0.0 0.0 0.00 0.00 0.00 99 1024.7
20260906101016 12 0.0 0.0 0.00 0.00 0.00 99 1024.7
20260906100017 12 0.0 0.0 0.00 0.00 0.00 99 1024.7
20260906095024 12 0.0 0.0 0.00 0.00 0.00 99 1024.7
20260906094019 12 0.0 0.0 0.00 0.00 0.00 99 1024.8
20260906093019 12 0.0 0.0 0.00 0.00 0.00 99 1024.9
20260906092032 12 0.0 0.0 0.00 0.00 0.00 99 1024.7
20260906091027 12 0.0 0.0 0.00 0.00 0.00 99 1025.1
20260906090023 12 0.0 0.0 0.00 0.00 0.00 99 1025.2
20260906085019 12 0.0 0.0 0.00 0.00 0.00 99 1025.3
20260906084032 12 0.0 0.0 0.00 0.00 0.00 99 1025.5
20260906083027 12 0.0 0.0 0.00 0.00 0.00 99 1025.3
20260906082022 12 0.0 0.0 0.00 0.00 0.00 99 1025.4
20260906081024 12 0.0 0.0 0.00 0.00 0.00 99 1025.4
20260906080018 12 0.0 0.0 0.00 0.00 0.00 99 1025.4
20260906075025 12 0.0 0.0 0.00 0.00 0.00 99 1025.4
20260906074020 12 0.0 0.0 0.00 0.00 0.00 99 1025.4
20260906073021 12 0.0 0.0 0.00 0.00 0.00 99 1025.5
20260906072016 12 0.0 0.0 0.00 0.00 0.00 99 1025.7
20260906071029 12 0.0 0.0 0.00 0.00 0.00 99 1025.7
20260906070024 12 0.0 0.0 0.00 0.00 0.00 99 1025.7
20260906065019 12 0.0 0.0 0.00 0.00 0.00 99 1025.7
20260906064032 12 0.0 0.0 0.00 0.00 0.00 99 1025.7
20260906063027 12 0.0 0.0 0.00 0.00 0.00 99 1025.7
20260906062028 12 0.0 0.0 0.00 0.00 0.00 99 1025.7
20260906061029 12 0.0 0.0 0.00 0.00 0.00 98 1025.7
20260906060030 12 0.0 0.0 0.00 0.00 0.00 98 1025.7
20260906055025 12 0.0 0.0 0.00 0.00 0.00 98 1025.7
20260906054020 12 0.0 0.0 0.00 0.00 0.00 98 1025.7
20260906053033 12 0.0 0.0 0.00 0.00 0.00 97 1025.8
20260906052028 12 0.0 0.0 0.00 0.00 0.00 97 1025.7
20260906051023 12 0.0 0.0 0.00 0.00 0.00 97 1025.7
20260906050018 12 0.0 0.0 0.00 0.00 0.00 97 1025.6
20260906045031 12 0.0 0.0 0.00 0.00 0.00 96 1025.6
20260906044026 12 0.0 0.0 0.00 0.00 0.00 96 1025.5
20260906043020 12 0.0 0.0 0.00 0.00 0.00 96 1025.6
20260906042015 12 45 1.6 6.4 0.00 0.00 0.00 96 1025.5
20260906041024 12 0.0 0.0 0.00 0.00 0.00 95 1025.6
20260906040038 12 0.0 0.0 0.00 0.00 0.00 95 1025.6
20260906035026 12 0.0 0.0 0.00 0.00 0.00 95 1025.6
20260906034020 12 0.0 0.0 0.00 0.00 0.00 95 1025.6
20260906033021 12 0.0 0.0 0.00 0.00 0.00 95 1025.6
20260906032017 12 0.0 0.0 0.00 0.00 0.00 94 1025.6
20260906031030 12 0.0 0.0 0.00 0.00 0.00 94 1025.7
20260906030045 12 0.0 0.0 0.00 0.00 0.00 94 1025.7
20260906025019 12 0.0 0.0 0.00 0.00 0.00 94 1025.7
20260906024032 12 0.0 0.0 0.00 0.00 0.00 93 1025.6
20260906023048 12 0.0 0.0 0.00 0.00 0.00 93 1025.4
20260906022043 12 0.0 0.0 0.00 0.00 0.00 93 1025.4
20260906021017 13 0.0 0.0 0.00 0.00 0.00 92 1025.4
20260906020018 13 0.0 0.0 0.00 0.00 0.00 92 1025.3
20260906015025 13 0.0 0.0 0.00 0.00 0.00 92 1025.2
20260906014020 13 0.0 0.0 0.00 0.00 0.00 91 1025.2
20260906013142 13 0.0 0.0 0.00 0.00 0.00 91 1025.2
20260906012017 13 0.0 0.0 0.00 0.00 0.00 90 1025.1
20260906011029 13 0.0 0.0 0.00 0.00 0.00 90 1025.2
20260906010024 13 0.0 0.0 0.00 0.00 0.00 89 1025.1
20260906005020 13 0.0 0.0 0.00 0.00 0.00 89 1025.1
20260906004033 13 0.0 0.0 0.00 0.00 0.00 88 1025.1
20260906003028 14 0.0 0.0 0.00 0.00 0.00 87 1025.1
20260906002023 14 0.0 0.0 0.00 0.00 0.00 87 1025.0
20260906001018 14 0.0 0.0 0.00 0.00 0.00 86 1025.1
20260906000019 15 0.0 0.0 0.00 0.00 0.00 86 1025.0
20260905235028 15 0.0 0.0 0.00 0.00 0.00 85 1025.0
20260905234021 15 0.0 0.0 0.00 0.00 0.00 84 1025.0
20260905233016 15 0.0 0.0 0.00 0.00 0.00 84 1025.0
20260905232037 15 0.0 0.0 0.00 0.00 0.00 83 1025.1